Fargo, ND

4:23 AM CDT on May 28, 2017 (GMT -0500)
Hector International

Weather History for KFAR - April, 2014

Change the Weather History Date:

Tuesday, April 15, 2014

  Actual Average Record
Temperature  
Mean Temperature 23 °F 44 °F  
Max Temperature 34 °F 56 °F 87 °F (1913)
Min Temperature 12 °F 33 °F 12 °F (2014)
Degree Days  
Heating Degree Days 42 21  
Month to date heating degree days 413 372  
Since 1 July heating degree days 9006 8202  
Cooling Degree Days 0 0  
Month to date cooling degree days 0 0  
Year to date cooling degree days 0 0  
Moisture  
Dew Point 9 °F    
Average Humidity 60    
Maximum Humidity 84    
Minimum Humidity 35    
Precipitation  
Precipitation 0.00 in 0.04 in 1.00 in (1910)
Month to date precipitation 0.46 0.60  
Year to date precipitation 2.06 3.21  
Snow  
Snow 0.00 in 0.10 in 2.90 in (1910)
Month to date snowfall 0.5 1.8  
Since 1 July snowfall 33.4 48.9  
Snow Depth 0.00 in    
Sea Level Pressure  
Sea Level Pressure 30.14 in    
Wind  
Wind Speed 6 mph (SE)    
Max Wind Speed 22 mph    
Max Gust Speed 29 mph    
Visibility 10 miles    
Events      
T = Trace of Precipitation, MM = Missing Value Source: NWS Daily Summary

Daily Weather History Graph

Daily Weather History Graph

Search for Another Location

Airport or City:

Trip Planner

Search our weather history database for the weather conditions in past years. The results will help you decide how hot, cold, wet, or windy it might be!

Date:

Astronomy

Apr. 15, 2014 Rise Set
Actual Time 6:39 AM CDT 8:15 PM CDT
Civil Twilight 6:07 AM CDT 8:47 PM CDT
Nautical Twilight 5:28 AM CDT 9:26 PM CDT
Astronomical Twilight 4:46 AM CDT 10:09 PM CDT
Moon 9:01 PM CDT (4/15) 6:47 AM CDT (4/15)
Length of Visible Light 14h 40m
Length of Day
13h 36m
Full, 100% of the Moon is Illuminated
Apr 15
Full
Apr 22
Last Quarter
Apr 29
New
May 6
First Quarter
May 14
Full

Hourly Weather History & Observations

Time (CDT) Temp. Windchill Dew Point Humidity Pressure Visibility Wind Dir Wind Speed Gust Speed Precip Events Conditions
12:53 AM 16.0 °F 7.4 °F 9.0 °F 74% 30.27 in 10.0 mi North 5.8 mph - N/A   Clear
1:53 AM 15.1 °F 9.4 °F 8.1 °F 74% 30.26 in 10.0 mi WNW 3.5 mph - N/A   Clear
2:53 AM 16.0 °F - 10.0 °F 77% 30.25 in 10.0 mi Calm Calm - N/A   Clear
3:53 AM 15.1 °F - 9.0 °F 77% 30.25 in 10.0 mi Calm Calm - N/A   Clear
4:53 AM 14.0 °F - 8.1 °F 77% 30.24 in 10.0 mi Calm Calm - N/A   Clear
5:53 AM 12.9 °F - 8.1 °F 81% 30.23 in 10.0 mi Calm Calm - N/A   Clear
6:53 AM 12.9 °F - 9.0 °F 84% 30.23 in 10.0 mi Calm Calm - N/A   Clear
7:53 AM 17.1 °F 11.7 °F 10.0 °F 74% 30.24 in 10.0 mi SSW 3.5 mph - N/A   Clear
8:53 AM 19.0 °F 13.9 °F 5.0 °F 54% 30.23 in 10.0 mi South 3.5 mph - N/A   Clear
9:53 AM 21.9 °F - 3.9 °F 46% 30.21 in 10.0 mi Calm Calm - N/A   Clear
10:53 AM 25.0 °F - 3.9 °F 41% 30.18 in 10.0 mi Calm Calm - N/A   Clear
11:53 AM 25.0 °F 20.7 °F 3.0 °F 39% 30.16 in 10.0 mi Variable 3.5 mph - N/A   Partly Cloudy
12:53 PM 28.0 °F 20.8 °F 5.0 °F 38% 30.13 in 10.0 mi SE 6.9 mph - N/A   Scattered Clouds
1:53 PM 30.0 °F 23.2 °F 10.9 °F 45% 30.11 in 10.0 mi SE 6.9 mph - N/A   Partly Cloudy
2:53 PM 30.9 °F 22.2 °F 10.0 °F 42% 30.08 in 10.0 mi SE 10.4 mph 16.1 mph N/A   Partly Cloudy
3:53 PM 32.0 °F 23.6 °F 9.0 °F 38% 30.06 in 10.0 mi SE 10.4 mph - N/A   Mostly Cloudy
4:53 PM 34.0 °F 24.2 °F 12.9 °F 42% 30.04 in 10.0 mi SE 15.0 mph - N/A   Mostly Cloudy
5:53 PM 33.1 °F 25.5 °F 10.9 °F 40% 30.03 in 10.0 mi ESE 9.2 mph - N/A   Overcast
6:53 PM 34.0 °F 24.6 °F 10.0 °F 37% 30.03 in 10.0 mi SE 13.8 mph - N/A   Overcast
7:53 PM 33.1 °F 24.4 °F 10.0 °F 38% 30.03 in 10.0 mi SE 11.5 mph - N/A   Overcast
8:53 PM 33.1 °F 23.9 °F 10.9 °F 40% 30.02 in 10.0 mi ESE 12.7 mph - N/A   Overcast
9:53 PM 33.1 °F 26.1 °F 12.9 °F 43% 30.02 in 10.0 mi East 8.1 mph - N/A   Overcast
10:53 PM 33.1 °F 24.4 °F 12.9 °F 43% 30.01 in 10.0 mi East 11.5 mph - N/A   Overcast
11:53 PM 33.1 °F 25.5 °F 14.0 °F 46% 30.01 in 10.0 mi East 9.2 mph - N/A   Overcast